| time (UTC) | temp F | wind direction | speed MPH | gust MPH | rain 1hr in | rain 24hr in | rain mn in | humidity % | barometer mb |
| 20260901112703 | 74 | 67 | 8.0 | 15.0 | 0.00 | 0.00 | 0.00 | 50 | 1018.0 |
| 20260901111803 | 74 | 68 | 7.0 | 11.0 | 0.00 | 0.00 | 0.00 | 50 | 1017.9 |
| 20260901110903 | 75 | 79 | 6.0 | 14.0 | 0.00 | 0.00 | 0.00 | 51 | 1017.9 |
| 20260901110004 | 75 | 84 | 8.0 | 18.0 | 0.00 | 0.00 | 0.00 | 52 | 1018.0 |
| 20260901105403 | 74 | 72 | 8.0 | 18.0 | 0.00 | 0.00 | 0.00 | 53 | 1018.0 |
| 20260901104503 | 73 | 68 | 10.0 | 20.0 | 0.00 | 0.00 | 0.00 | 53 | 1018.2 |
| 20260901103817 | 74 | 68 | 10.0 | 21.0 | 0.00 | 0.00 | 0.00 | 51 | 1018.1 |
| 20260901102703 | 73 | 69 | 9.0 | 17.0 | 0.00 | 0.00 | 0.00 | 53 | 1018.2 |
| 20260901101803 | 72 | 65 | 11.0 | 19.0 | 0.00 | 0.00 | 0.00 | 55 | 1018.2 |
| 20260901100903 | 71 | 81 | 10.0 | 20.0 | 0.00 | 0.00 | 0.00 | 55 | 1018.3 |
| 20260901100004 | 71 | 71 | 12.0 | 22.0 | 0.00 | 0.00 | 0.00 | 54 | 1018.1 |
| 20260901095403 | 71 | 72 | 13.0 | 22.0 | 0.00 | 0.00 | 0.00 | 55 | 1018.2 |
| 20260901094503 | 71 | 75 | 13.0 | 20.0 | 0.00 | 0.00 | 0.00 | 56 | 1018.2 |
| 20260901093603 | 71 | 80 | 13.0 | 21.0 | 0.00 | 0.00 | 0.00 | 55 | 1018.3 |
| 20260901092918 | 70 | 86 | 13.0 | 21.0 | 0.00 | 0.00 | 0.00 | 57 | 1018.4 |
| 20260901091803 | 70 | 70 | 13.0 | 26.0 | 0.00 | 0.00 | 0.00 | 58 | 1018.2 |
| 20260901091118 | 69 | 74 | 14.0 | 26.0 | 0.00 | 0.00 | 0.00 | 60 | 1018.1 |
| 20260901090003 | 68 | 77 | 13.0 | 19.0 | 0.00 | 0.00 | 0.00 | 61 | 1018.2 |
| 20260901085403 | 68 | 75 | 14.0 | 22.0 | 0.00 | 0.00 | 0.00 | 60 | 1018.2 |
| 20260901084503 | 68 | 71 | 13.0 | 21.0 | 0.00 | 0.00 | 0.00 | 61 | 1018.1 |
| 20260901083603 | 68 | 76 | 13.0 | 20.0 | 0.00 | 0.00 | 0.00 | 61 | 1017.9 |
| 20260901082703 | 68 | 74 | 13.0 | 28.0 | 0.00 | 0.00 | 0.00 | 62 | 1018.0 |
| 20260901081803 | 67 | 78 | 12.0 | 20.0 | 0.00 | 0.00 | 0.00 | 62 | 1018.0 |
| 20260901080903 | 67 | 76 | 13.0 | 23.0 | 0.00 | 0.00 | 0.00 | 62 | 1017.9 |
| 20260901080217 | 67 | 73 | 14.0 | 23.0 | 0.00 | 0.00 | 0.00 | 61 | 1017.9 |
| 20260901075403 | 67 | 78 | 14.0 | 24.0 | 0.00 | 0.00 | 0.00 | 62 | 1017.5 |
| 20260901074503 | 67 | 75 | 15.0 | 25.0 | 0.00 | 0.00 | 0.00 | 62 | 1017.4 |
| 20260901073603 | 66 | 75 | 14.0 | 24.0 | 0.00 | 0.00 | 0.00 | 64 | 1017.2 |
| 20260901072703 | 66 | 77 | 14.0 | 21.0 | 0.00 | 0.00 | 0.00 | 63 | 1017.3 |
| 20260901071803 | 66 | 74 | 15.0 | 22.0 | 0.00 | 0.00 | 0.00 | 63 | 1017.2 |
| 20260901070903 | 65 | 77 | 15.0 | 24.0 | 0.00 | 0.00 | 0.00 | 64 | 1017.1 |
| 20260901070004 | 65 | 70 | 14.0 | 22.0 | 0.00 | 0.00 | 0.00 | 65 | 1017.2 |
| 20260901065403 | 65 | 74 | 15.0 | 22.0 | 0.00 | 0.00 | 0.00 | 64 | 1017.0 |
| 20260901064503 | 65 | 82 | 14.0 | 21.0 | 0.00 | 0.00 | 0.00 | 63 | 1017.1 |
| 20260901063603 | 65 | 74 | 14.0 | 24.0 | 0.00 | 0.00 | 0.00 | 63 | 1017.1 |
| 20260901062703 | 65 | 74 | 14.0 | 21.0 | 0.00 | 0.00 | 0.00 | 62 | 1016.9 |
| 20260901061803 | 65 | 74 | 15.0 | 25.0 | 0.00 | 0.00 | 0.00 | 64 | 1017.0 |
| 20260901060903 | 65 | 71 | 15.0 | 30.0 | 0.00 | 0.00 | 0.00 | 65 | 1017.0 |
| 20260901060003 | 65 | 66 | 14.0 | 28.0 | 0.00 | 0.00 | 0.00 | 65 | 1016.8 |
| 20260901055403 | 65 | 71 | 15.0 | 24.0 | 0.00 | 0.00 | 0.00 | 65 | 1016.9 |
| 20260901054503 | 65 | 76 | 16.0 | 24.0 | 0.00 | 0.00 | 0.00 | 65 | 1016.9 |
| 20260901053603 | 65 | 74 | 16.0 | 24.0 | 0.00 | 0.00 | 0.00 | 65 | 1016.8 |
| 20260901052703 | 65 | 71 | 16.0 | 25.0 | 0.00 | 0.00 | 0.00 | 66 | 1016.6 |
| 20260901051808 | 65 | 78 | 17.0 | 26.0 | 0.00 | 0.00 | 0.00 | 66 | 1016.6 |
| 20260901050903 | 65 | 78 | 17.0 | 27.0 | 0.00 | 0.00 | 0.00 | 65 | 1016.4 |
| 20260901050004 | 65 | 78 | 15.0 | 21.0 | 0.00 | 0.00 | 0.00 | 64 | 1016.1 |
| 20260901045403 | 65 | 78 | 14.0 | 22.0 | 0.00 | 0.00 | 0.00 | 64 | 1016.1 |
| 20260901044505 | 65 | 74 | 14.0 | 24.0 | 0.00 | 0.00 | 0.00 | 65 | 1016.1 |
| 20260901043603 | 65 | 71 | 16.0 | 30.0 | 0.00 | 0.00 | 0.00 | 65 | 1016.0 |
| 20260901042703 | 65 | 70 | 15.0 | 23.0 | 0.00 | 0.00 | 0.00 | 64 | 1015.9 |
| 20260901041803 | 66 | 76 | 15.0 | 23.0 | 0.00 | 0.00 | 0.00 | 63 | 1015.7 |
| 20260901040903 | 66 | 76 | 15.0 | 22.0 | 0.00 | 0.00 | 0.00 | 61 | 1015.6 |
| 20260901040004 | 67 | 78 | 14.0 | 28.0 | 0.00 | 0.00 | 0.00 | 60 | 1015.5 |
| 20260901035404 | 67 | 77 | 14.0 | 21.0 | 0.00 | 0.00 | 0.00 | 59 | 1015.6 |
| 20260901034503 | 67 | 78 | 12.0 | 20.0 | 0.00 | 0.00 | 0.00 | 60 | 1015.5 |
| 20260901033603 | 67 | 78 | 11.0 | 21.0 | 0.00 | 0.00 | 0.00 | 59 | 1015.6 |
| 20260901032703 | 67 | 78 | 13.0 | 26.0 | 0.00 | 0.00 | 0.00 | 59 | 1015.6 |
| 20260901031803 | 67 | 78 | 13.0 | 21.0 | 0.00 | 0.00 | 0.00 | 59 | 1015.3 |
| 20260901030903 | 67 | 76 | 12.0 | 19.0 | 0.00 | 0.00 | 0.00 | 59 | 1015.3 |
| 20260901030003 | 67 | 75 | 14.0 | 23.0 | 0.00 | 0.00 | 0.00 | 58 | 1015.2 |
| 20260901025617 | 67 | 74 | 13.0 | 21.0 | 0.00 | 0.00 | 0.00 | 58 | 1015.2 |
| 20260901024503 | 68 | 80 | 11.0 | 20.0 | 0.00 | 0.00 | 0.00 | 57 | 1015.2 |
| 20260901023818 | 68 | 73 | 10.0 | 20.0 | 0.00 | 0.00 | 0.00 | 57 | 1015.3 |
| 20260901022703 | 68 | 72 | 11.0 | 17.0 | 0.00 | 0.00 | 0.00 | 56 | 1015.4 |
| 20260901021803 | 68 | 83 | 11.0 | 19.0 | 0.00 | 0.00 | 0.00 | 56 | 1015.2 |
| 20260901021118 | 68 | 75 | 12.0 | 19.0 | 0.00 | 0.00 | 0.00 | 57 | 1015.0 |
| 20260901020003 | 68 | 75 | 13.0 | 21.0 | 0.00 | 0.00 | 0.00 | 58 | 1015.3 |
| 20260901015403 | 68 | 75 | 13.0 | 21.0 | 0.00 | 0.00 | 0.00 | 58 | 1015.4 |
| 20260901014503 | 68 | 79 | 13.0 | 20.0 | 0.00 | 0.00 | 0.00 | 57 | 1015.2 |
| 20260901013603 | 68 | 80 | 11.0 | 18.0 | 0.00 | 0.00 | 0.00 | 57 | 1015.6 |
| 20260901012703 | 68 | 79 | 11.0 | 19.0 | 0.00 | 0.00 | 0.00 | 57 | 1015.6 |
| 20260901012018 | 68 | 74 | 9.0 | 18.0 | 0.00 | 0.00 | 0.00 | 58 | 1015.5 |
| 20260901010903 | 68 | 85 | 8.0 | 15.0 | 0.00 | 0.00 | 0.00 | 60 | 1015.6 |
| 20260901010003 | 68 | 74 | 7.0 | 15.0 | 0.00 | 0.00 | 0.00 | 61 | 1015.6 |
| 20260901005403 | 68 | 80 | 4.0 | 15.0 | 0.00 | 0.00 | 0.00 | 62 | 1015.6 |
| 20260901004503 | 68 | 43 | 2.0 | 11.0 | 0.00 | 0.00 | 0.00 | 63 | 1015.8 |
| 20260901003603 | 68 | 224 | 3.0 | 9.0 | 0.00 | 0.00 | 0.00 | 64 | 1015.7 |
| 20260901002703 | 68 | 47 | 3.0 | 9.0 | 0.00 | 0.00 | 0.00 | 64 | 1015.6 |
| 20260901001803 | 69 | 69 | 7.0 | 20.0 | 0.00 | 0.00 | 0.00 | 64 | 1015.6 |
| 20260901000903 | 69 | 79 | 8.0 | 18.0 | 0.00 | 0.00 | 0.00 | 64 | 1015.6 |
| 20260901000004 | 69 | 74 | 6.0 | 18.0 | 0.00 | 0.00 | 0.00 | 64 | 1015.3 |
| 20260831235403 | 68 | 87 | 2.0 | 6.0 | 0.00 | 0.00 | 0.00 | 65 | 1015.5 |
| 20260831234503 | 69 | 8 | 1.0 | 4.0 | 0.00 | 0.00 | 0.00 | 64 | 1015.6 |
| 20260831233603 | 70 | 23 | 2.0 | 10.0 | 0.00 | 0.00 | 0.00 | 62 | 1015.4 |
| 20260831232703 | 70 | 74 | 8.0 | 15.0 | 0.00 | 0.00 | 0.00 | 61 | 1015.2 |
| 20260831231803 | 70 | 86 | 9.0 | 15.0 | 0.00 | 0.00 | 0.00 | 63 | 1014.9 |
| 20260831230903 | 70 | 81 | 8.0 | 14.0 | 0.00 | 0.00 | 0.00 | 65 | 1014.6 |
| 20260831230003 | 69 | 80 | 8.0 | 14.0 | 0.00 | 0.00 | 0.00 | 65 | 1014.7 |
| 20260831225403 | 69 | 84 | 9.0 | 17.0 | 0.00 | 0.00 | 0.00 | 65 | 1014.5 |
| 20260831224717 | 69 | 79 | 8.0 | 17.0 | 0.00 | 0.00 | 0.00 | 65 | 1014.3 |
| 20260831223603 | 69 | 65 | 8.0 | 15.0 | 0.00 | 0.00 | 0.00 | 63 | 1014.4 |
| 20260831222703 | 70 | 66 | 9.0 | 15.0 | 0.00 | 0.00 | 0.00 | 61 | 1014.4 |
| 20260831221803 | 70 | 68 | 10.0 | 18.0 | 0.00 | 0.00 | 0.00 | 61 | 1014.1 |
| 20260831220903 | 69 | 72 | 8.0 | 16.0 | 0.00 | 0.00 | 0.00 | 62 | 1014.5 |
| 20260831220005 | 69 | 70 | 7.0 | 17.0 | 0.00 | 0.00 | 0.00 | 64 | 1014.5 |
| 20260831215403 | 69 | 62 | 6.0 | 15.0 | 0.00 | 0.00 | 0.00 | 66 | 1014.6 |
| 20260831214503 | 69 | 57 | 3.0 | 12.0 | 0.00 | 0.00 | 0.00 | 70 | 1014.7 |
| 20260831213603 | 69 | 22 | 2.0 | 4.0 | 0.00 | 0.00 | 0.00 | 71 | 1014.9 |
| 20260831212917 | 68 | 47 | 1.0 | 3.0 | 0.00 | 0.00 | 0.00 | 71 | 1014.5 |
| 20260831212016 | 68 | 53 | 1.0 | 3.0 | 0.00 | 0.00 | 0.00 | 71 | 1014.2 |
| 20260831210904 | 67 | 61 | 3.0 | 4.0 | 0.00 | 0.00 | 0.00 | 68 | 1014.0 |
| 20260831210003 | 68 | 24 | 3.0 | 5.0 | 0.00 | 0.00 | 0.00 | 65 | 1014.2 |
| 20260831205403 | 68 | 16 | 3.0 | 5.0 | 0.00 | 0.00 | 0.00 | 64 | 1014.4 |
| 20260831204503 | 68 | 28 | 3.0 | 4.0 | 0.00 | 0.00 | 0.00 | 64 | 1014.2 |
| 20260831203603 | 68 | 41 | 3.0 | 4.0 | 0.00 | 0.00 | 0.00 | 64 | 1014.0 |
| 20260831202917 | 67 | 35 | 3.0 | 4.0 | 0.00 | 0.00 | 0.00 | 67 | 1014.1 |
| 20260831201803 | 68 | 45 | 3.0 | 4.0 | 0.00 | 0.00 | 0.00 | 69 | 1014.1 |
| 20260831201117 | 67 | 55 | 3.0 | 4.0 | 0.00 | 0.00 | 0.00 | 69 | 1014.1 |
| 20260831200003 | 67 | 34 | 3.0 | 4.0 | 0.00 | 0.00 | 0.00 | 70 | 1014.1 |
| 20260831195403 | 67 | 22 | 3.0 | 3.0 | 0.00 | 0.00 | 0.00 | 71 | 1014.1 |
| 20260831194503 | 67 | 22 | 3.0 | 4.0 | 0.00 | 0.00 | 0.00 | 71 | 1014.0 |
| 20260831193603 | 68 | 18 | 3.0 | 4.0 | 0.00 | 0.00 | 0.00 | 71 | 1013.9 |
| 20260831192703 | 68 | 25 | 3.0 | 4.0 | 0.00 | 0.00 | 0.00 | 71 | 1013.7 |
| 20260831192018 | 68 | 25 | 3.0 | 5.0 | 0.00 | 0.00 | 0.00 | 72 | 1013.3 |
| 20260831191117 | 69 | 336 | 1.0 | 4.0 | 0.00 | 0.00 | 0.00 | 70 | 1013.3 |
| 20260831190004 | 69 | 208 | 1.0 | 6.0 | 0.00 | 0.00 | 0.00 | 70 | 1013.2 |
| 20260831185403 | 69 | 11 | 0.0 | 2.0 | 0.00 | 0.00 | 0.00 | 70 | 1013.3 |
| 20260831184503 | 70 | 85 | 1.0 | 4.0 | 0.00 | 0.00 | 0.00 | 70 | 1013.1 |
| 20260831183603 | 70 | 153 | 2.0 | 5.0 | 0.00 | 0.00 | 0.00 | 70 | 1013.0 |
| 20260831182703 | 70 | 159 | 2.0 | 5.0 | 0.00 | 0.00 | 0.00 | 70 | 1012.6 |
| 20260831181803 | 70 | 157 | 2.0 | 4.0 | 0.00 | 0.00 | 0.00 | 70 | 1012.6 |
| 20260831181117 | 71 | 150 | 2.0 | 4.0 | 0.00 | 0.00 | 0.00 | 70 | 1012.4 |
| 20260831180004 | 71 | 170 | 3.0 | 7.0 | 0.00 | 0.00 | 0.00 | 69 | 1012.4 |
| 20260831175403 | 72 | 188 | 3.0 | 7.0 | 0.00 | 0.00 | 0.00 | 69 | 1012.4 |
| 20260831174503 | 72 | 200 | 3.0 | 9.0 | 0.00 | 0.00 | 0.00 | 69 | 1012.4 |
| 20260831173603 | 73 | 206 | 4.0 | 8.0 | 0.00 | 0.00 | 0.00 | 70 | 1012.4 |
| 20260831172703 | 74 | 209 | 4.0 | 6.0 | 0.00 | 0.00 | 0.00 | 70 | 1012.4 |
| 20260831172017 | 74 | 224 | 4.0 | 11.0 | 0.00 | 0.00 | 0.00 | 69 | 1012.5 |
| 20260831170903 | 75 | 230 | 6.0 | 11.0 | 0.00 | 0.00 | 0.00 | 67 | 1012.7 |
| 20260831170003 | 76 | 237 | 4.0 | 10.0 | 0.00 | 0.00 | 0.00 | 65 | 1012.6 |
| 20260831165403 | 76 | 230 | 5.0 | 9.0 | 0.00 | 0.00 | 0.00 | 64 | 1012.7 |
| 20260831164503 | 77 | 222 | 5.0 | 9.0 | 0.00 | 0.00 | 0.00 | 63 | 1012.6 |
| 20260831163603 | 78 | 243 | 4.0 | 9.0 | 0.00 | 0.00 | 0.00 | 62 | 1012.8 |
| 20260831162703 | 78 | 236 | 3.0 | 6.0 | 0.00 | 0.00 | 0.00 | 61 | 1012.8 |
| 20260831161803 | 78 | 231 | 5.0 | 9.0 | 0.00 | 0.00 | 0.00 | 61 | 1012.8 |
| 20260831160903 | 78 | 233 | 5.0 | 10.0 | 0.00 | 0.00 | 0.00 | 61 | 1012.8 |
| 20260831160003 | 78 | 236 | 5.0 | 10.0 | 0.00 | 0.00 | 0.00 | 60 | 1012.8 |
| 20260831155403 | 79 | 244 | 7.0 | 10.0 | 0.00 | 0.00 | 0.00 | 61 | 1012.8 |
| 20260831154718 | 79 | 240 | 5.0 | 12.0 | 0.00 | 0.00 | 0.00 | 59 | 1012.8 |
| 20260831153603 | 79 | 223 | 6.0 | 12.0 | 0.00 | 0.00 | 0.00 | 61 | 1012.8 |
| 20260831152703 | 79 | 212 | 5.0 | 8.0 | 0.00 | 0.00 | 0.00 | 59 | 1012.9 |
| 20260831152016 | 80 | 223 | 5.0 | 8.0 | 0.00 | 0.00 | 0.00 | 58 | 1012.9 |
| 20260831150903 | 79 | 232 | 6.0 | 11.0 | 0.00 | 0.00 | 0.00 | 57 | 1013.0 |
| 20260831150004 | 80 | 243 | 6.0 | 11.0 | 0.00 | 0.00 | 0.00 | 59 | 1013.0 |
| 20260831145403 | 80 | 237 | 6.0 | 12.0 | 0.00 | 0.00 | 0.00 | 58 | 1013.0 |
| 20260831144503 | 80 | 231 | 5.0 | 10.0 | 0.00 | 0.00 | 0.00 | 57 | 1013.0 |
| 20260831143603 | 80 | 243 | 5.0 | 14.0 | 0.00 | 0.00 | 0.00 | 59 | 1013.0 |
| 20260831142703 | 80 | 240 | 7.0 | 14.0 | 0.00 | 0.00 | 0.00 | 59 | 1012.9 |
| 20260831141803 | 80 | 234 | 7.0 | 13.0 | 0.00 | 0.00 | 0.00 | 58 | 1013.0 |
| 20260831140903 | 80 | 239 | 7.0 | 12.0 | 0.00 | 0.00 | 0.00 | 57 | 1013.0 |
| 20260831140004 | 80 | 240 | 8.0 | 14.0 | 0.00 | 0.00 | 0.00 | 58 | 1013.0 |
| 20260831135403 | 80 | 245 | 6.0 | 14.0 | 0.00 | 0.00 | 0.00 | 58 | 1012.9 |
| 20260831134717 | 80 | 247 | 7.0 | 13.0 | 0.00 | 0.00 | 0.00 | 58 | 1012.9 |
| 20260831133603 | 80 | 229 | 5.0 | 12.0 | 0.00 | 0.00 | 0.00 | 56 | 1012.9 |
| 20260831132703 | 80 | 249 | 6.0 | 16.0 | 0.00 | 0.00 | 0.00 | 57 | 1013.0 |
| 20260831131803 | 81 | 248 | 7.0 | 11.0 | 0.00 | 0.00 | 0.00 | 57 | 1013.1 |
| 20260831130903 | 80 | 237 | 8.0 | 14.0 | 0.00 | 0.00 | 0.00 | 56 | 1013.2 |
| 20260831130004 | 80 | 243 | 8.0 | 14.0 | 0.00 | 0.00 | 0.00 | 56 | 1013.1 |
| 20260831125403 | 80 | 248 | 6.0 | 14.0 | 0.00 | 0.00 | 0.00 | 56 | 1013.2 |
| 20260831124503 | 81 | 239 | 6.0 | 11.0 | 0.00 | 0.00 | 0.00 | 54 | 1013.2 |
| 20260831123603 | 81 | 225 | 5.0 | 12.0 | 0.00 | 0.00 | 0.00 | 53 | 1013.2 |
| 20260831122703 | 83 | 262 | 4.0 | 11.0 | 0.00 | 0.00 | 0.00 | 52 | 1013.3 |
| 20260831121803 | 83 | 247 | 3.0 | 12.0 | 0.00 | 0.00 | 0.00 | 54 | 1013.2 |
| 20260831120903 | 81 | 233 | 4.0 | 9.0 | 0.00 | 0.00 | 0.00 | 54 | 1013.3 |
| 20260831120004 | 81 | 234 | 4.0 | 9.0 | 0.00 | 0.00 | 0.00 | 55 | 1013.3 |
| 20260831115617 | 80 | 220 | 4.0 | 9.0 | 0.00 | 0.00 | 0.00 | 54 | 1013.3 |
| 20260831114503 | 81 | 258 | 4.0 | 8.0 | 0.00 | 0.00 | 0.00 | 54 | 1013.5 |
| 20260831113818 | 80 | 251 | 4.0 | 11.0 | 0.00 | 0.00 | 0.00 | 56 | 1013.7 |